Volver al catálogo

CZ-6A DEB

ActivoSSO
NORAD 54327·DEBRIS·🇨🇳 China

Lanzado Nov 11, 2022 desde Taiyuan Satellite Launch Center

Loading…

Próximos Pases (próximas 24 horas)

TLE

ActualizadoSource: Space-Track

Época: Sep 14, 2026, 16:59 UTC

1 54327U 22151BW  26257.70798721  .00000521  00000-0  30698-3 0  9992
2 54327  98.8346 253.6219 0049275  82.8845 277.7926 14.11659902197084

Sigue CZ-6A DEB en tiempo real con AllMySat

Download on the App Store